�������l�o���
Date,Time,MP-1(��Sv/h),MP-2(��Sv/h),MP-3(��Sv/h),MP-4(��Sv/h),MP-5(��Sv/h),MP-6(��Sv/h),MP-7(��Sv/h),MP-8(��Sv/h),����,����(m/s),���J
2017/02/23,00:00,1.069,1.788,1.191,2.067,1.443,0.560,1.027,0.950,��쓌,2.0,��
2017/02/23,00:10,1.070,1.789,1.192,2.070,1.446,0.560,1.027,0.951,��쓌,2.0,��
2017/02/23,00:20,1.069,1.790,1.188,2.065,1.443,0.560,1.028,0.952,��,1.2,��
2017/02/23,00:30,1.072,1.793,1.190,2.068,1.442,0.561,1.027,0.953,��쓌,1.4,��
2017/02/23,00:40,1.071,1.791,1.192,2.065,1.443,0.561,1.028,0.951,��,2.2,��
2017/02/23,00:50,1.068,1.788,1.190,2.066,1.444,0.560,1.027,0.953,��쐼,2.3,��
2017/02/23,01:00,1.070,1.788,1.191,2.066,1.444,0.558,1.026,0.952,��쐼,2.3,��
2017/02/23,01:10,1.070,1.791,1.189,2.066,1.444,0.559,1.027,0.950,��,2.6,��
2017/02/23,01:20,1.071,1.790,1.189,2.068,1.445,0.560,1.029,0.951,��,2.0,��
2017/02/23,01:30,1.068,1.792,1.189,2.067,1.444,0.561,1.026,0.951,��,1.7,��
2017/02/23,01:40,1.068,1.789,1.189,2.067,1.446,0.559,1.027,0.952,��쓌,2.0,��
2017/02/23,01:50,1.069,1.788,1.189,2.069,1.444,0.561,1.026,0.952,��쓌,1.5,��
2017/02/23,02:00,1.069,1.793,1.189,2.069,1.447,0.562,1.026,0.949,�쓌,1.1,��
2017/02/23,02:10,1.070,1.790,1.190,2.067,1.446,0.560,1.028,0.951,��쓌,1.4,��
2017/02/23,02:20,1.067,1.791,1.190,2.066,1.444,0.560,1.027,0.954,��,1.1,��
2017/02/23,02:30,1.070,1.790,1.189,2.068,1.445,0.561,1.028,0.950,-,CALM,��
2017/02/23,02:40,1.070,1.788,1.189,2.071,1.445,0.560,1.025,0.952,-,CALM,��
2017/02/23,02:50,1.072,1.790,1.191,2.068,1.445,0.560,1.027,0.953,�k��,0.6,�L
2017/02/23,03:00,1.071,1.787,1.191,2.068,1.444,0.562,1.027,0.953,�k,1.2,�L
2017/02/23,03:10,1.069,1.784,1.188,2.066,1.446,0.562,1.028,0.954,�k�k��,2.2,�L
2017/02/23,03:20,1.070,1.776,1.191,2.065,1.441,0.563,1.026,0.952,�k,2.5,�L
2017/02/23,03:30,1.066,1.775,1.188,2.062,1.437,0.564,1.026,0.952,�k�k��,2.6,�L
2017/02/23,03:40,1.065,1.773,1.184,2.061,1.429,0.563,1.025,0.949,�k�k��,2.3,�L
2017/02/23,03:50,1.063,1.763,1.183,2.057,1.429,0.564,1.024,0.949,�k�k��,2.6,�L
2017/02/23,04:00,1.061,1.758,1.179,2.055,1.425,0.563,1.024,0.949,�k,2.8,�L
2017/02/23,04:10,1.058,1.757,1.178,2.048,1.421,0.564,1.023,0.949,�k�k��,3.3,�L
2017/02/23,04:20,1.057,1.754,1.177,2.042,1.420,0.563,1.023,0.950,�k�k��,3.5,�L
2017/02/23,04:30,1.055,1.746,1.172,2.043,1.415,0.563,1.021,0.948,�k,3.3,�L
2017/02/23,04:40,1.054,1.747,1.175,2.043,1.413,0.562,1.022,0.948,�k�k��,3.3,�L
2017/02/23,04:50,1.052,1.746,1.170,2.037,1.413,0.561,1.020,0.947,�k,3.4,�L
2017/02/23,05:00,1.050,1.746,1.170,2.036,1.410,0.561,1.020,0.947,�k,4.0,�L
2017/02/23,05:10,1.049,1.744,1.171,2.033,1.409,0.560,1.019,0.947,�k,3.3,�L
2017/02/23,05:20,1.047,1.740,1.168,2.033,1.408,0.560,1.020,0.946,�k,3.0,�L
2017/02/23,05:30,1.047,1.743,1.169,2.030,1.406,0.560,1.019,0.945,�k�k��,2.6,�L
2017/02/23,05:40,1.045,1.741,1.166,2.031,1.406,0.557,1.019,0.943,�k�k��,2.5,�L
2017/02/23,05:50,1.046,1.739,1.166,2.032,1.409,0.557,1.019,0.945,�k�k��,3.1,�L
2017/02/23,06:00,1.045,1.738,1.164,2.032,1.405,0.557,1.019,0.945,�k,2.9,�L
2017/02/23,06:10,1.045,1.741,1.164,2.031,1.406,0.557,1.018,0.944,�k,3.8,�L
2017/02/23,06:20,1.043,1.740,1.164,2.029,1.406,0.558,1.018,0.943,�k,3.3,�L
2017/02/23,06:30,1.045,1.736,1.164,2.028,1.405,0.556,1.018,0.945,�k,3.6,�L
2017/02/23,06:40,1.043,1.735,1.163,2.030,1.404,0.556,1.016,0.942,�k,4.2,�L
2017/02/23,06:50,1.043,1.734,1.163,2.027,1.399,0.558,1.018,0.945,�k,4.3,�L
2017/02/23,07:00,1.043,1.732,1.156,2.023,1.399,0.557,1.019,0.943,�k,4.0,�L
2017/02/23,07:10,1.043,1.732,1.161,2.022,1.396,0.557,1.016,0.941,�k,4.3,�L
2017/02/23,07:20,1.041,1.729,1.158,2.023,1.400,0.558,1.017,0.944,�k,4.9,�L
2017/02/23,07:30,1.041,1.733,1.161,2.022,1.398,0.556,1.017,0.943,�k�k��,4.8,�L
2017/02/23,07:40,1.038,1.726,1.161,2.022,1.396,0.556,1.018,0.942,�k�k��,5.4,�L
2017/02/23,07:50,1.042,1.729,1.160,2.022,1.395,0.556,1.016,0.942,�k�k��,4.6,�L
2017/02/23,08:00,1.039,1.731,1.162,2.022,1.396,0.556,1.018,0.944,�k,3.9,�L
2017/02/23,08:10,1.040,1.728,1.161,2.020,1.394,0.556,1.018,0.945,�k�k��,4.2,�L
2017/02/23,08:20,1.042,1.729,1.158,2.020,1.397,0.556,1.017,0.943,�k�k��,4.5,��
2017/02/23,08:30,1.042,1.727,1.158,2.021,1.395,0.555,1.017,0.944,�k�k��,3.7,�L
2017/02/23,08:40,1.041,1.730,1.165,2.018,1.394,0.556,1.016,0.944,�k�k��,3.5,�L
2017/02/23,08:50,1.042,1.732,1.158,2.019,1.393,0.555,1.018,0.944,�k�k��,2.2,�L
2017/02/23,09:00,1.043,1.728,1.159,2.019,1.394,0.554,1.017,0.943,�k,3.3,��
2017/02/23,09:10,1.041,1.730,1.160,2.018,1.396,0.555,1.018,0.943,�k,2.2,��
2017/02/23,09:20,1.042,1.730,1.160,2.018,1.396,0.554,1.017,0.944,�k�k��,1.7,��
2017/02/23,09:30,1.041,1.731,1.161,2.018,1.396,0.556,1.019,0.944,�k�k��,2.2,��
2017/02/23,09:40,1.042,1.732,1.155,2.020,1.394,0.552,1.017,0.946,�k,2.2,��
2017/02/23,09:50,1.044,1.730,1.157,2.018,1.396,0.553,1.018,0.943,�k�k��,2.3,��
2017/02/23,10:00,1.042,1.730,1.157,2.017,1.399,0.554,1.020,0.945,�k,1.5,��
2017/02/23,10:10,1.042,1.731,1.159,2.020,1.400,0.555,1.018,0.943,�k,2.5,��
2017/02/23,10:20,1.043,1.730,1.156,2.018,1.397,0.553,1.018,0.945,�k,2.2,��
2017/02/23,10:30,1.042,1.731,1.158,2.017,1.398,0.554,1.017,0.943,�k,2.6,��
2017/02/23,10:40,1.040,1.729,1.160,2.017,1.396,0.552,1.018,0.942,�k,2.6,�L
2017/02/23,10:50,1.042,1.729,1.159,2.019,1.397,0.554,1.018,0.943,�k�k��,2.3,�L
2017/02/23,11:00,-,1.728,1.159,2.021,1.400,0.553,1.017,0.944,�k�k��,3.2,��
2017/02/23,11:10,-,1.733,1.156,2.020,1.398,0.554,1.016,0.944,�k�k��,3.6,��
2017/02/23,11:20,-,1.731,1.159,2.021,1.398,0.553,1.017,0.945,�k,2.8,��
2017/02/23,11:30,-,1.730,1.159,2.019,1.399,0.557,1.018,0.944,�k,3.1,��
2017/02/23,11:40,-,1.731,1.160,2.023,1.398,0.553,1.017,0.945,�k�k��,2.8,��
2017/02/23,11:50,-,1.732,1.160,2.020,1.402,0.554,1.019,0.945,�k,2.8,��
2017/02/23,12:00,-,1.732,1.158,2.022,1.400,0.555,1.018,0.945,�k,3.5,��
2017/02/23,12:10,-,1.732,1.159,2.021,1.397,0.555,1.018,0.946,�k,2.9,��
2017/02/23,12:20,-,1.735,1.162,2.021,1.399,0.556,1.018,0.945,�k�k��,3.2,��
2017/02/23,12:30,-,1.738,1.159,2.019,1.398,0.557,1.020,0.945,�k,3.0,��
2017/02/23,12:40,-,1.734,1.161,2.021,1.402,0.556,1.020,0.944,�k��,2.8,��
2017/02/23,12:50,-,1.734,1.160,2.021,1.402,0.554,1.019,0.946,�k��,5.2,��
2017/02/23,13:00,-,1.736,1.160,2.020,1.403,0.555,1.018,0.945,�k��,3.6,��
2017/02/23,13:10,-,1.732,1.162,2.024,1.402,0.557,1.019,0.946,���k��,4.4,��
2017/02/23,13:20,-,1.734,1.164,2.024,1.402,0.556,1.019,0.946,���k��,4.6,��
2017/02/23,13:30,-,1.736,1.164,2.022,1.402,0.557,1.020,0.947,���k��,4.0,��
2017/02/23,13:40,-,1.738,1.167,2.023,1.404,0.558,1.021,0.946,�k��,4.7,��
2017/02/23,13:50,-,1.737,1.168,2.023,1.403,0.560,1.021,0.948,���쐼,3.8,��
2017/02/23,14:00,-,1.739,1.168,2.024,1.405,0.558,1.023,0.947,���k��,5.2,��
2017/02/23,14:10,-,1.737,1.169,2.025,1.405,0.559,1.021,0.949,���k��,3.8,��
2017/02/23,14:20,-,1.740,1.162,2.028,1.407,0.560,1.022,0.951,�k��,4.0,��
2017/02/23,14:30,-,1.742,1.168,2.029,1.409,0.560,1.023,0.949,���k��,8.0,��
2017/02/23,14:40,-,1.741,1.169,2.031,1.407,0.559,1.022,0.951,���k��,7.8,��
2017/02/23,14:50,-,1.741,1.168,2.033,1.409,0.561,1.023,0.950,���k��,9.1,��
2017/02/23,15:00,-,1.741,1.171,2.035,1.409,0.560,1.023,0.948,��,7.6,��
2017/02/23,15:10,-,1.741,1.170,2.034,1.408,0.560,1.023,0.945,��,6.3,��
2017/02/23,15:20,-,1.745,1.171,2.036,1.409,0.558,1.023,0.948,���k��,5.0,��
2017/02/23,15:30,-,1.746,1.170,2.033,1.408,0.559,1.024,0.946,���k��,7.7,��
2017/02/23,15:40,1.055,1.745,1.169,2.037,1.409,0.559,1.022,0.947,���k��,6.3,��
2017/02/23,15:50,1.055,1.744,1.169,2.035,1.407,0.559,1.024,0.949,���k��,5.2,��
2017/02/23,16:00,1.055,1.743,1.169,2.036,1.413,0.556,1.022,0.944,���k��,5.0,��
2017/02/23,16:10,1.054,1.743,1.171,2.035,1.412,0.559,1.023,0.946,��,4.0,��
2017/02/23,16:20,1.053,1.742,1.171,2.036,1.411,0.561,1.023,0.948,�k��,6.1,��
2017/02/23,16:30,1.052,1.744,1.171,2.035,1.410,0.561,1.022,0.948,��,6.6,��
2017/02/23,16:40,1.052,1.742,1.169,2.036,1.410,0.560,1.021,0.947,���k��,6.7,��
2017/02/23,16:50,1.054,1.743,1.169,2.040,1.412,0.558,1.022,0.949,���k��,6.4,��
2017/02/23,17:00,1.053,1.742,1.170,2.036,1.414,0.559,1.022,0.949,�k��,3.8,��
2017/02/23,17:10,1.051,1.745,1.168,2.037,1.409,0.561,1.022,0.948,�k��,3.7,��
2017/02/23,17:20,1.050,1.745,1.169,2.037,1.411,0.560,1.021,0.949,�k��,5.3,��
2017/02/23,17:30,1.053,1.749,1.171,2.036,1.410,0.558,1.022,0.949,�k��,6.5,��
2017/02/23,17:40,1.054,1.744,1.172,2.038,1.410,0.561,1.021,0.950,���k��,10.9,��
2017/02/23,17:50,1.055,1.746,1.172,2.035,1.413,0.559,1.020,0.951,�k��,8.8,��
2017/02/23,18:00,1.053,1.746,1.173,2.036,1.410,0.557,1.021,0.949,�k��,8.5,��
2017/02/23,18:10,1.057,1.748,1.172,2.037,1.416,0.558,1.022,0.950,���k��,9.6,��
2017/02/23,18:20,1.054,1.748,1.173,2.038,1.413,0.558,1.022,0.950,���k��,10.2,��
2017/02/23,18:30,1.055,1.747,1.171,2.038,1.411,0.559,1.021,0.951,�k��,10.4,��
2017/02/23,18:40,1.053,1.747,1.171,2.036,1.412,0.559,1.022,0.950,���k��,10.4,��
2017/02/23,18:50,1.053,1.752,1.172,2.036,1.412,0.559,1.024,0.949,�k��,10.9,��
2017/02/23,19:00,1.055,1.748,1.173,2.037,1.413,0.559,1.022,0.948,�k��,9.3,��
2017/02/23,19:10,1.056,1.747,1.173,2.038,1.414,0.559,1.023,0.949,�k��,12.2,��
2017/02/23,19:20,1.052,1.747,1.173,2.038,1.410,0.559,1.021,0.949,�k��,12.8,��
2017/02/23,19:30,1.055,1.747,1.170,2.037,1.409,0.560,1.021,0.949,�k��,11.6,��
2017/02/23,19:40,1.053,1.747,1.171,2.036,1.413,0.559,1.022,0.948,�k��,12.4,��
2017/02/23,19:50,1.055,1.749,1.172,2.037,1.415,0.558,1.020,0.949,�k��,10.0,��
2017/02/23,20:00,1.052,1.749,1.170,2.039,1.414,0.560,1.022,0.950,�k��,10.2,��
2017/02/23,20:10,1.052,1.746,1.171,2.039,1.413,0.557,1.022,0.948,�k��,11.3,��
2017/02/23,20:20,1.050,1.746,1.173,2.038,1.415,0.559,1.023,0.951,�k�k��,10.6,��
2017/02/23,20:30,1.050,1.746,1.172,2.038,1.415,0.559,1.023,0.950,�k�k��,12.0,��
2017/02/23,20:40,1.050,1.747,1.171,2.038,1.412,0.558,1.022,0.949,�k�k��,10.1,��
2017/02/23,20:50,1.053,1.746,1.170,2.038,1.415,0.558,1.023,0.949,�k�k��,11.7,��
2017/02/23,21:00,1.051,1.750,1.172,2.039,1.414,0.559,1.023,0.949,�k�k��,13.5,��
2017/02/23,21:10,1.051,1.752,1.172,2.039,1.411,0.558,1.024,0.949,�k�k��,13.3,��
2017/02/23,21:20,1.053,1.745,1.172,2.036,1.414,0.557,1.025,0.948,�k�k��,14.1,��
2017/02/23,21:30,1.049,1.748,1.171,2.039,1.413,0.558,1.024,0.949,�k�k��,14.1,��
2017/02/23,21:40,1.048,1.748,1.171,2.038,1.415,0.556,1.022,0.948,�k�k��,13.9,��
2017/02/23,21:50,1.049,1.750,1.170,2.042,1.414,0.557,1.024,0.949,�k�k��,12.7,��
2017/02/23,22:00,1.049,1.748,1.169,2.036,1.414,0.558,1.023,0.950,�k�k��,13.6,��
2017/02/23,22:10,1.049,1.749,1.173,2.039,1.413,0.558,1.023,0.949,�k�k��,14.7,��
2017/02/23,22:20,1.049,1.752,1.171,2.039,1.413,0.558,1.023,0.949,�k�k��,13.1,��
2017/02/23,22:30,1.049,1.747,1.172,2.039,1.415,0.557,1.023,0.949,�k,13.1,��
2017/02/23,22:40,1.048,1.749,1.168,2.039,1.415,0.554,1.023,0.948,�k,11.3,��
2017/02/23,22:50,1.049,1.748,1.173,2.038,1.415,0.555,1.022,0.948,�k,10.1,��
2017/02/23,23:00,1.048,1.752,1.172,2.040,1.415,0.557,1.022,0.948,�k,11.1,��
2017/02/23,23:10,1.048,1.750,1.171,2.037,1.415,0.557,1.025,0.951,�k,7.8,��
2017/02/23,23:20,1.049,1.751,1.171,2.037,1.416,0.557,1.023,0.951,�k�k��,8.2,��
2017/02/23,23:30,1.047,1.749,1.170,2.040,1.414,0.557,1.021,0.948,�k�k��,8.2,��
2017/02/23,23:40,1.047,1.749,1.171,2.035,1.414,0.557,1.022,0.949,�k�k��,7.4,��
2017/02/23,23:50,1.049,1.749,1.170,2.041,1.413,0.556,1.023,0.949,�k�k��,6.5,��
